Vorticity
0 4 4 7 5 7 6 5 3 -0 4 3 3 4 3 4 3 3 4 5 8 8 4 3 5 7 9 11 9 5 4 8 12 6 3 2 3 1 5 8 7 6 4
7 6 4 4 3 0 2 3 4 0 4 2 3 3 3 4 1 1 2 4 4 1 2 0 1 1 2 5 6 10 11 9 8 6 10 6 2 3 2 5 8 6 4
4 5 1 2 2 4 2 3 7 8 6 4 4 5 4 3 2 3 2 2 3 3 3 4 5 7 6 7 9 5 5 4 8 14 10 9 9 4 3 4 3 6 5
3 1 1 3 2 7 8 5 4 4 4 7 8 7 5 6 4 4 3 3 4 6 4 4 7 9 8 10 9 7 10 7 4 7 5 8 9 9 8 4 4 2 4
-1 -0 3 4 3 5 8 6 4 4 6 5 5 4 4 4 3 3 3 4 4 5 7 7 6 5 6 5 6 6 6 7 9 11 7 8 8 6 6 10 8 3 2
4 7 6 5 5 6 5 5 5 6 5 4 3 4 4 3 3 4 4 4 5 8 6 5 4 2 2 3 3 3 2 4 4 2 3 8 9 8 6 6 8 10 6
6 5 5 6 4 5 7 7 7 5 5 5 5 4 4 4 4 4 5 7 10 4 1 0 -0 3 3 2 4 6 4 5 6 6 4 5 6 7 10 8 8 7 9
5 4 5 7 7 4 2 2 3 4 5 5 5 6 6 6 7 8 10 10 7 2 0 1 2 2 1 1 2 2 3 5 6 5 6 7 6 6 7 8 8 8 7
7 5 2 3 2 4 8 7 6 6 6 6 7 7 7 7 8 8 8 5 4 1 2 2 -1 -1 0 2 2 1 2 1 -2 -0 7 8 5 8 7 3 8 9 8
1 4 3 6 8 5 5 6 7 8 10 12 11 9 9 7 6 5 6 5 5 5 3 2 2 4 4 4 3 3 3 2 4 2 2 0 2 6 4 5 4 3 9
4 6 8 3 3 3 4 4 5 8 11 10 7 6 4 4 4 6 5 6 5 5 3 3 5 7 6 8 5 3 5 6 7 5 9 12 9 4 6 6 6 4 5
7 7 4 3 4 5 5 4 6 8 9 6 2 3 4 6 7 11 11 7 1 1 6 2 4 -3 0 10 7 10 -3 6 3 6 2 -1 6 14 8 7 9 7 4
6 5 2 5 7 4 2 4 7 9 8 3 2 1 2 5 9 9 4 1 4 6 4 5 3 0 4 -5 -6 -1 5 -3 -4 -2 1 -3 4 6 9 5 7 9 8
3 4 5 7 5 2 3 5 10 10 7 5 2 4 5 6 8 7 5 2 4 6 1 3 9 5 3 2 1 -2 -3 -1 -0 -5 -5 3 2 19 5 4 1 7 9
5 4 6 6 3 3 4 9 7 7 7 4 5 6 5 5 7 8 5 4 4 1 4 -0 -5 1 -6 -5 -3 1 1 -4 1 -0 -0 2 10 -1 16 4 2 1 8
4 5 7 5 3 3 6 7 6 6 8 7 8 8 7 6 7 6 2 3 3 6 3 -3 -1 4 2 0 1 1 0 2 -1 0 3 -6 11 7 14 9 4 6 11
5 7 6 4 3 3 5 7 4 6 6 6 9 8 11 3 8 5 2 3 4 1 -2 0 -2 -1 -2 -3 3 2 -1 -4 4 -6 20 32 31 25 20 21 18 14 8
5 6 5 4 3 4 5 4 4 8 6 8 8 9 8 3 6 6 3 3 2 0 -2 1 4 7 4 4 3 4 1 13 2 51 49 43 41 40 33 30 26 24 14
4 6 5 5 4 3 5 4 4 8 7 8 11 7 6 3 8 5 2 3 3 2 3 1 -1 9 2 6 3 8 1 2 63 46 41 36 30 31 31 33 18 14 22
5 6 6 4 5 4 5 3 5 8 6 7 10 5 4 8 6 3 3 2 3 3 3 7 2 5 2 8 9 6 17 58 48 34 22 17 17 18 18 23 37 24 12
6 6 6 4 6 4 6 3 8 6 5 11 6 3 8 5 4 2 3 3 5 5 7 4 5 0 5 9 15 19 63 44 23 16 22 27 22 21 22 18 10 22 26
6 4 5 7 4 4 7 9 7 5 7 8 4 7 9 6 3 4 5 4 5 7 5 4 1 4 12 26 32 49 37 30 14 20 21 24 22 21 23 26 21 21 21
4 5 6 5 3 9 8 7 7 5 9 8 3 9 5 3 3 4 4 4 4 5 4 1 5 11 26 37 29 24 22 19 20 15 15 16 19 17 17 20 25 24 23
6 7 4 2 6 10 13 6 6 10 8 3 11 5 2 3 3 4 5 3 5 4 1 6 10 25 34 27 19 22 14 14 22 22 16 10 15 16 17 20 22 25 20
6 3 2 4 10 6 6 9 8 7 6 9 8 3 3 2 4 6 3 4 4 2 5 10 20 25 26 18 17 17 18 7 18 17 15 9 10 17 17 21 23 18 16
5 7 2 4 7 6 9 4 2 9 6 9 6 2 2 3 5 4 4 3 1 4 8 14 23 31 21 15 16 12 19 7 15 17 14 9 5 18 24 26 31 3 15
Height
5851 5850 5849 5848 5848 5847 5846 5845 5844 5844 5844 5844 5842 5840 5839 5838 5837 5836 5835 5834 5833 5832 5830 5829 5828 5827 5826 5824 5823 5821 5821 5820 5820 5820 5820 5819 5819 5819 5819 5819 5819 5819 5819
5849 5848 5848 5847 5847 5845 5844 5843 5842 5842 5842 5840 5839 5837 5836 5835 5834 5832 5831 5831 5830 5828 5827 5826 5824 5823 5822 5821 5820 5818 5817 5816 5815 5814 5814 5814 5814 5814 5815 5815 5816 5815 5815
5847 5846 5846 5846 5845 5843 5842 5842 5841 5840 5839 5837 5835 5834 5832 5831 5830 5828 5827 5825 5824 5823 5822 5821 5819 5818 5817 5816 5815 5814 5812 5811 5811 5810 5808 5808 5808 5808 5809 5809 5810 5811 5811
5846 5845 5845 5845 5843 5842 5841 5839 5838 5837 5836 5835 5833 5831 5830 5828 5826 5825 5824 5822 5821 5819 5817 5816 5815 5813 5812 5811 5810 5809 5808 5806 5805 5805 5804 5803 5803 5802 5803 5803 5805 5805 5806
5844 5843 5843 5842 5840 5839 5838 5837 5836 5835 5832 5831 5829 5827 5825 5823 5822 5820 5819 5817 5815 5814 5813 5811 5810 5808 5806 5806 5805 5804 5803 5802 5801 5800 5800 5798 5797 5797 5796 5797 5797 5799 5799
5842 5841 5840 5838 5837 5836 5835 5834 5832 5831 5829 5827 5825 5823 5821 5818 5816 5815 5813 5811 5810 5808 5806 5805 5804 5802 5801 5800 5799 5798 5798 5797 5796 5795 5794 5793 5792 5791 5790 5790 5791 5792 5792
5839 5838 5836 5835 5834 5832 5830 5829 5828 5826 5824 5823 5820 5818 5816 5813 5811 5809 5807 5806 5804 5802 5801 5799 5798 5796 5795 5794 5793 5792 5792 5791 5790 5789 5789 5788 5787 5786 5784 5783 5784 5784 5786
5836 5835 5833 5832 5831 5829 5827 5826 5824 5822 5820 5817 5814 5812 5810 5808 5805 5803 5801 5800 5798 5796 5795 5793 5792 5790 5789 5787 5786 5785 5783 5783 5783 5782 5782 5781 5780 5779 5778 5777 5776 5777 5778
5833 5831 5830 5829 5827 5825 5824 5821 5819 5816 5813 5811 5808 5806 5804 5801 5799 5797 5795 5793 5791 5789 5788 5786 5784 5782 5781 5779 5778 5776 5774 5773 5772 5772 5772 5772 5772 5770 5770 5769 5769 5769 5769
5829 5828 5826 5824 5823 5821 5818 5816 5813 5810 5808 5805 5803 5801 5798 5796 5793 5791 5789 5786 5784 5782 5780 5778 5776 5774 5772 5770 5769 5767 5765 5763 5761 5761 5761 5760 5761 5761 5760 5759 5759 5759 5760
5825 5824 5822 5820 5818 5816 5813 5810 5807 5804 5802 5799 5797 5794 5791 5789 5786 5784 5781 5779 5777 5774 5772 5770 5767 5764 5762 5759 5756 5754 5752 5750 5748 5747 5746 5747 5747 5747 5747 5748 5749 5749 5749
5822 5820 5818 5816 5813 5811 5808 5805 5802 5799 5795 5792 5789 5786 5784 5781 5778 5775 5773 5770 5768 5765 5762 5759 5756 5752 5749 5747 5744 5740 5737 5735 5732 5730 5729 5729 5730 5732 5732 5733 5735 5736 5737
5817 5815 5813 5811 5809 5806 5803 5799 5796 5792 5789 5786 5783 5779 5776 5773 5769 5766 5764 5761 5758 5754 5751 5747 5744 5740 5737 5733 5729 5725 5722 5718 5714 5711 5711 5711 5711 5711 5713 5715 5718 5720 5722
5813 5811 5808 5806 5803 5799 5796 5793 5789 5785 5782 5779 5775 5772 5768 5764 5760 5757 5754 5751 5747 5743 5739 5734 5731 5726 5722 5717 5712 5708 5704 5700 5696 5692 5691 5689 5687 5687 5689 5691 5697 5702 5705
5807 5805 5803 5800 5796 5793 5790 5785 5781 5778 5774 5771 5767 5763 5759 5756 5752 5748 5743 5739 5735 5731 5726 5721 5716 5711 5706 5700 5693 5686 5682 5677 5672 5667 5663 5663 5663 5662 5663 5666 5671 5677 5685
5801 5799 5796 5793 5789 5786 5782 5778 5774 5770 5766 5762 5758 5753 5749 5746 5742 5738 5733 5728 5723 5717 5711 5706 5700 5693 5686 5680 5673 5665 5657 5650 5643 5637 5631 5629 5629 5630 5633 5636 5642 5650 5659
5795 5792 5789 5785 5782 5778 5774 5769 5765 5761 5757 5752 5747 5743 5738 5734 5729 5724 5719 5713 5708 5702 5695 5688 5681 5674 5667 5660 5652 5642 5633 5623 5612 5603 5593 5587 5586 5589 5593 5600 5608 5618 5630
5787 5784 5781 5778 5774 5770 5765 5761 5756 5751 5747 5741 5736 5731 5725 5721 5716 5710 5704 5698 5692 5685 5678 5670 5661 5652 5643 5634 5625 5614 5601 5587 5574 5560 5549 5544 5544 5548 5555 5563 5573 5585 5598
5779 5776 5773 5770 5766 5761 5756 5751 5746 5741 5736 5730 5725 5719 5714 5708 5702 5696 5690 5684 5676 5668 5660 5650 5639 5628 5617 5607 5596 5583 5567 5551 5533 5520 5515 5513 5513 5516 5522 5530 5540 5551 5565
5771 5768 5765 5761 5757 5752 5747 5742 5736 5731 5725 5720 5713 5707 5700 5695 5689 5683 5675 5668 5661 5653 5643 5632 5620 5606 5593 5580 5568 5557 5537 5518 5504 5496 5493 5491 5490 5493 5497 5505 5513 5525 5538
5763 5760 5757 5753 5748 5743 5737 5732 5726 5720 5714 5707 5701 5694 5688 5683 5676 5669 5663 5654 5645 5635 5624 5611 5597 5583 5568 5551 5539 5529 5509 5493 5484 5479 5475 5474 5474 5475 5481 5486 5493 5502 5515
5755 5752 5748 5743 5739 5733 5728 5722 5716 5710 5704 5697 5691 5684 5678 5671 5664 5656 5648 5639 5628 5617 5603 5589 5574 5559 5541 5522 5507 5493 5487 5483 5472 5466 5462 5461 5460 5461 5466 5471 5477 5486 5496
5747 5743 5739 5734 5729 5723 5717 5711 5705 5699 5693 5686 5680 5672 5664 5657 5649 5640 5630 5620 5608 5595 5581 5565 5548 5532 5516 5499 5485 5474 5468 5465 5461 5458 5451 5450 5450 5449 5453 5459 5465 5473 5482
5737 5734 5729 5724 5719 5712 5706 5700 5694 5687 5681 5674 5667 5660 5652 5644 5634 5623 5613 5601 5588 5574 5558 5540 5523 5506 5491 5481 5472 5463 5455 5450 5448 5449 5443 5439 5439 5440 5442 5447 5454 5462 5472
5728 5724 5718 5713 5707 5701 5695 5689 5682 5676 5669 5662 5655 5648 5639 5630 5619 5607 5596 5583 5568 5552 5535 5517 5501 5486 5471 5463 5457 5451 5445 5440 5437 5435 5437 5431 5430 5427 5432 5437 5444 5452 5463
5719 5713 5708 5702 5696 5690 5684 5678 5672 5665 5658 5650 5642 5634 5626 5616 5604 5592 5579 5565 5549 5531 5513 5497 5480 5466 5455 5447 5441 5436 5432 5429 5427 5425 5424 5424 5422 5415 5421 5428 5435 5445 5454